656  
ASUS41 KCTP 221910  
RWRCTP  
 
REGIONAL WEATHER ROUNDUP  
NATIONAL WEATHER SERVICE STATE COLLEGE PA  
300 PM EDT WED MAY 22 2019  
 
NOTE: "FAIR" INDICATES FEW OR NO CLOUDS BELOW 12,000 FEET WITH NO  
SIGNIFICANT WEATHER AND/OR S TO VISIBILITY
.  
 
* = STATION THAT DOES NOT REPORT PRECIPITATION /E.G. RAIN...SNOW...ETC/  
THUNDER OR FOG.
 
 
PAZ002>004-007>009-013>016-020>023-029>032-222000-  
WESTERN PENNSYLVANIA  
 
CITY SKY/WX TMP DP RH WIND PRES REMARKS
 
ERIE LGT RAIN 65 49 56 NW3 30.12R  
MEADVILLE PTSUNNY 66 45 46 VRB6 30.10F  
FRANKLIN* FAIR 67 45 45 SE14G21 30.15F  
NEW CASTLE MOCLDY 75 54 47 VRB6 30.12F  
BEAVER COUNTY MOSUNNY 77 54 44 S12G17 30.12F  
BUTLER* FAIR 72 53 51 SE10 30.14F  
PITTSBURGH INT CLOUDY 76 54 46 SE7 30.11F  
PITTSBURGH PTSUNNY 76 56 49 S8 30.13F  
INDIANA* SUNNY 72 48 43 SE12 30.21S  
LATROBE MOSUNNY 73 52 46 E12 30.15F  
WASHINGTON CO* FAIR 80 61 52 S7 30.14F  

 
 
PAZ004>006-010>012-017>019-024>028-033>037-041-042-045-046-049>053-222000-  
CENTRAL PENNSYLVANIA  
 
CITY SKY/WX TMP DP RH WIND PRES REMARKS
 
BRADFORD FAIR 64 37 36 SE12 30.20F  
DUBOIS FAIR 63 42 46 SE12 30.18F  
CLEARFIELD FAIR 66 43 43 VRB6 30.22F  
JOHNSTOWN FAIR 64 44 48 S10 30.22S  
ALTOONA FAIR 67 43 41 S10 30.24F  
STATE COLLEGE SUNNY 66 41 39 SW7 30.24S  
WILLIAMSPORT FAIR 69 38 32 VRB5 30.22S  
SELINSGROVE PTSUNNY 69 38 32 CALM 30.24F  
FT INDIANTOWN PTSUNNY 71 40 32 S10 30.23F  
CAPITAL CITY FAIR 71 39 31 VRB7 30.24F  
HARRISBURG CLOUDY 71 43 36 SE5 30.23F  
YORK FAIR 70 42 36 VRB6 30.25F  

 
 
PAZ038>040-043-044-047-048-054-055-060>062-067>071-222000-  
EASTERN PENNSYLVANIA  
 
CITY SKY/WX TMP DP RH WIND PRES REMARKS
 
SCRANTON FAIR 71 35 26 NW5 30.22F  
MOUNT POCONO FAIR 68 33 27 SW5 30.23F  
ALLENTOWN FAIR 73 39 29 SW7 30.22F  
QUAKERTOWN* CLEAR 72 41 33 VRB6 30.23F  
READING FAIR 73 43 33 MISG 30.22F  
LANCASTER FAIR 73 46 38 VRB7 30.23F  
COATESVILLE FAIR 70 36 28 NW3 30.26S  
POTTSTOWN FAIR 70 40 33 VRB3 30.25F  
BLUE BELL FAIR 71 39 30 W7 30.25F  
DOYLESTOWN FAIR 72 39 30 NW6 30.22F  
WILLOW GROVE NOT AVBL  
NORTH PHILA FAIR 75 37 25 VRB5 30.24F  
PHILADELPHIA PTSUNNY 73 35 25 SW9 30.24F  

 
 
 
CLICK HERE TO GO TO PREVIOUS BULLETINS.

The Nexlab PA Page Main Text Page